This demonstration page uses our WeatherBlox Daily Observations layout. Learn more.

Left ArrowRight Arrow

39.01783, -85.05884

Hourly Observations for June 1, 2018

Temp ( °F °C ) Dew Point ( °F °C ) Humidity (%) Winds ( mph kmh ) Pressure ( in mb ) Visibility ( mi km ) Precip ( " mm )
12:22 am 00:22 Cloudy 67 19.4 64 17.8 91 91 W 5 7 29.83 1010 10 16 N/A
12:43 am 00:43 Mostly Cloudy 67 19.4 64 17.8 91 91 WSW 3 6 29.83 1010 10 16 N/A
12:52 am 00:52 Mostly Cloudy 67 19.4 64 17.8 91 91 N N/A 29.83 1010 10 16 N/A
1:52 am 01:52 Mostly Cloudy 66 18.9 64 17.8 93 93 SSW 6 9 29.82 1010 10 16 N/A
2:15 am 02:15 Cloudy with Nearby Thunderstorms 66 18.9 64 17.8 93 93 SSW 6 9 29.80 1009 10 16 N/A
2:27 am 02:27 Cloudy with Thunderstorms 67 19.4 64 17.8 91 91 SSW 7 11 29.80 1009 10 16 N/A
2:52 am 02:52 Cloudy with Thunderstorms 67 19.4 65 18.3 93 93 SSW 10 17 29.80 1009 8 13 0.01 0.25
3:13 am 03:13 Cloudy with Nearby Thunderstorms 67 19.4 65 18.3 93 93 SSW 7 11 29.80 1009 10 16 0.02 0.51
3:23 am 03:23 Cloudy 68 20 65 18.3 90 90 SSW 10 17 29.80 1009 10 16 0.02 0.51
3:52 am 03:52 Cloudy with Light Rain 68 20 66 18.9 93 93 S 9 15 29.82 1010 10 16 0.02 0.51
4:45 am 04:45 Cloudy with Light Rain 68 20 66 18.9 93 93 SW 7 11 29.80 1009 10 16 0.01 0.25
4:52 am 04:52 Cloudy with Light Rain 68 20 66 18.9 93 93 SW 7 11 29.82 1010 10 16 0.01 0.25
5:07 am 05:07 Cloudy with Light Rain 68 20 66 18.9 93 93 W 3 6 29.83 1010 8 13 N/A
5:52 am 05:52 Cloudy with Light Rain 67 19.4 66 18.9 97 97 SSW 3 6 29.83 1010 6 10 N/A
6:23 am 06:23 Cloudy with Light Rain 67 19.4 67 19.4 100 100 SSW 5 7 29.83 1010 3 5 N/A
6:52 am 06:52 Cloudy with Light Rain 67 19.4 67 19.4 100 100 S 5 7 29.84 1010 3 5 0.01 0.25
7:52 am 07:52 Cloudy with Mist and Fog 68 20 68 20 100 100 SW 3 6 29.85 1011 3 5 0.01 0.25
8:52 am 08:52 Cloudy 69 20.6 66 18.9 90 90 SW 6 9 29.85 1011 9 14 N/A
9:52 am 09:52 Cloudy 70 21.1 67 19.4 90 90 SW 8 13 29.86 1011 10 16 N/A
10:43 am 10:43 Cloudy 72 22.2 67 19.4 84 84 WSW 8 13 29.88 1012 10 16 N/A
10:52 am 10:52 Cloudy 73 22.8 67 19.4 81 81 SW 6 9 29.87 1011 10 16 N/A
11:52 am 11:52 Cloudy 73 22.8 67 19.4 81 81 SW 3 6 29.87 1012 10 16 N/A
12:52 pm 12:52 Mostly Cloudy 77 25 69 20.6 77 77 VRB 5 7 29.87 1012 10 16 N/A
1:52 pm 13:52 Cloudy 78 25.6 68 20 71 71 SW 7 11 29.86 1011 10 16 N/A
2:43 pm 14:43 Cloudy 79 26.1 67 19.4 67 67 SW 5 7 29.83 1010 10 16 N/A
2:52 pm 14:52 Cloudy 79 26.1 69 20.6 72 72 VRB 5 7 29.85 1011 10 16 N/A
3:52 pm 15:52 Mostly Cloudy 80 26.7 69 20.6 69 69 SW 7 11 29.83 1010 10 16 N/A
4:52 pm 16:52 Mostly Cloudy 81 27.2 69 20.6 67 67 SSW 9 15 29.82 1010 10 16 N/A
5:52 pm 17:52 Mostly Cloudy 82 27.8 68 20 63 63 W 13 20 29.83 1010 10 16 N/A
6:09 pm 18:09 Mostly Cloudy with Nearby Thunderstorms 80 26.7 67 19.4 64 64 W 15 24 29.83 1010 10 16 N/A
6:52 pm 18:52 Mostly Cloudy 76 24.4 64 17.8 67 67 N N/A 29.83 1010 10 16 N/A
7:52 pm 19:52 Mostly Cloudy 74 23.3 64 17.8 71 71 WSW 3 6 29.83 1010 10 16 N/A
8:52 pm 20:52 Mostly Cloudy 73 22.8 64 17.8 74 74 WNW 3 6 29.85 1011 10 16 N/A
9:52 pm 21:52 Partly Cloudy 70 21.1 64 17.8 82 82 N N/A 29.87 1012 10 16 N/A
10:52 pm 22:52 Mostly Cloudy 68 20 65 18.3 90 90 S 5 7 29.87 1011 10 16 N/A
11:52 pm 23:52 Mostly Cloudy 69 20.6 65 18.3 87 87 W 5 7 29.86 1011 10 16 N/A

Powered by AerisWeather